Flag for Pakistan Weather past 2 weeks in Sargodha, Pakistan

Now
86 °F

Scattered clouds.


Feels Like: 85 °F
Forecast: 80 / 105 °F
Wind: No wind

Location: Lahore Airport

Current Time: May 23, 2015 at 7:15:22 AM

Latest Report: May 23, 2015 at 6:55 AM


Visibility: 2 mi

Pressure: 29.50 "Hg

Humidity: 35%

Dew point: 55 °F

Location of SargodhaLocation

Historic Weather in Sargodha — Graph

°F

Sargodha temperature yesterday

Maximum temperature yesterday: 109 °F (at 1:55 PM)
Minimum temperature yesterday: 84 °F (at 3:30 AM)
Average temperature yesterday: 97 °F

Past Weeks' High & Low Weather Summary

 TemperatureHumidityPressure
High109 °F (May 8, 2:55 PM)83% (May 11, 9:25 PM)29.89 "Hg (May 11, 9:25 PM)
Low70 °F (May 13, 4:55 AM)12% (May 20, 4:00 PM)29.47 "Hg (May 22, 3:55 PM)
Average90 °F40%29.66 "Hg
* Reported May 8 6:25 AM — May 23 5:55 AM, Sargodha, Weather by CustomWeather, © 2015

Note: Actual official high and low records may vary slightly from our data, if they occured in-between our weather recording intervals... More about our weather records

Advertising

Sargodha weather history for previous 24 hours

 ConditionsComfort  
Time TempWeatherWind HumidityBarometerVisibility
5:55 AM
Sat, May 23
84 °FScattered clouds.15 mph35%29.53 "Hg2 mi
4:55 AM84 °FPassing clouds.3 mph35%29.50 "Hg2 mi
4:25 AM84 °FHaze.3 mph37%29.50 "Hg2 mi
3:55 AM86 °FHaze.3 mph35%29.50 "Hg2 mi
3:25 AM88 °FHaze.No wind35%29.47 "Hg2 mi
2:55 AM88 °FHaze.No wind35%29.47 "Hg2 mi
2:25 AM88 °FHaze.No wind35%29.47 "Hg2 mi
1:55 AM88 °FHaze.5 mph35%29.50 "Hg2 mi
1:25 AM88 °FHaze.3 mph33%29.50 "Hg2 mi
12:55 AM90 °FHaze.No wind31%29.50 "Hg2 mi
12:25 AM90 °FHaze.7 mph31%29.50 "Hg2 mi
11:55 PM
Fri, May 22
90 °FHaze.7 mph31%29.53 "Hg2 mi
11:25 PM97 °FPassing clouds.6 mph25%29.53 "Hg2 mi
10:55 PM93 °FPassing clouds.7 mph28%29.53 "Hg2 mi
10:25 PM97 °FPassing clouds.6 mph22%29.53 "Hg2 mi
9:55 PM97 °FPassing clouds.8 mph22%29.53 "Hg2 mi
8:55 PM99 °FPassing clouds.13 mph24%29.53 "Hg2 mi
8:25 PM100 °FHaze.7 mph25%29.50 "Hg2 mi
7:55 PM100 °FHaze.3 mph25%29.50 "Hg2 mi
7:25 PM102 °FHaze.3 mph21%29.47 "Hg2 mi
6:55 PM102 °FHaze.No wind20%29.47 "Hg2 mi
6:25 PM104 °FHaze.3 mph19%29.47 "Hg3 mi
5:55 PM106 °FHaze.3 mph26%29.47 "Hg3 mi
5:25 PM106 °FHaze.3 mph17%29.47 "Hg3 mi
4:55 PM108 °FHaze.6 mph16%29.47 "Hg3 mi
4:25 PM109 °FClear.5 mph13%29.47 "Hg4 mi
3:55 PM109 °FClear.6 mph13%29.47 "Hg4 mi
3:25 PM109 °FClear.5 mph14%29.50 "Hg4 mi
2:55 PM109 °FClear.5 mph14%29.50 "Hg4 mi
2:25 PM109 °FHaze.5 mph14%29.50 "Hg3 mi
1:55 PM109 °FHaze.5 mph14%29.59 "Hg3 mi
1:25 PM108 °FHaze.3 mph14%29.53 "Hg3 mi
12:55 PM108 °FHaze.5 mph14%29.56 "Hg3 mi
12:25 PM108 °FHaze.7 mph14%29.56 "Hg2 mi
11:55 AM106 °FHaze.8 mph14%29.56 "Hg2 mi
11:25 AM104 °FHaze.7 mph16%29.56 "Hg2 mi
10:55 AM102 °FHaze.3 mph17%29.59 "Hg2 mi
10:25 AM99 °FHaze.No wind19%29.59 "Hg2 mi
9:55 AM99 °FHaze.No wind19%29.59 "Hg2 mi
9:25 AM97 °FHaze.No wind23%29.59 "Hg2 mi
8:55 AM95 °FHaze.5 mph25%29.59 "Hg2 mi
8:25 AM93 °FHaze.No wind28%29.59 "Hg2 mi
8:00 AM91 °FHaze.No wind30%29.59 "Hg2 mi
7:30 AM88 °FHaze.No wind40%29.59 "Hg2 mi
7:00 AM86 °FHaze.No wind43%29.59 "Hg2 mi
Weather by CustomWeather, © 2015

See weather overviewHow to use our weather pages